Tracking 28799 objects as of 18-Apr-2024
HD Live streaming from Space Station
objects crossing your sky now

EKRAN 16

Track EKRAN 16 now!
EKRAN 16 is classified as:


NORAD ID: 18328
Int'l Code: 1987-073A
Perigee: 36,877.7 km
Apogee: 36,901.7 km
Inclination: 13.4 °
Period: 1,492.5 minutes
Semi major axis: 43260 km
RCS: 5.9402 m2 (large)
Launch date: September 3, 1987
Source: Commonwealth of Independent States (former USSR) (CIS)
Launch site: TYURATAM MISSILE AND SPACE COMPLEX (TTMTR)
Your satellite tracking list
Your tracking list is empty




NASA's NSSDC Master Catalog

Two Line Element Set (TLE):
1 18328U 87073A   24108.43990240 -.00000168  00000-0  00000-0 0  9999
2 18328  13.3647 333.0122 0002779 232.3978 329.5963  0.96485539129380
Source of the keplerian elements: AFSPC